Fergus Falls, MN

11:33 AM CST on February 23, 2017 (GMT -0600)
Fergus Falls Municipal-Mickelson

Weather History for KFFM - November, 2012

Change the Weather History Date:

Friday, November 23, 2012

  Actual Average Record
Temperature  
Mean Temperature 10 °F -  
Max Temperature 15 °F 30 °F 52 °F (1980)
Min Temperature 6 °F 15 °F -10 °F (1950)
Degree Days  
Heating Degree Days 54    
Moisture  
Dew Point 8 °F    
Average Humidity 79    
Maximum Humidity 86    
Minimum Humidity 73    
Precipitation  
Precipitation 0.00 in - - ()
Sea Level Pressure  
Sea Level Pressure 30.38 in    
Wind  
Wind Speed 21 mph (NNW)    
Max Wind Speed 31 mph    
Max Gust Speed 40 mph    
Visibility 7 miles    
Events Snow    
Averages and records for this station are not official NWS values.
T = Trace of Precipitation, MM = Missing Value Source: NWS Daily Summary

Daily Weather History Graph

Daily Weather History Graph

Search for Another Location

Airport or City:

Trip Planner

Search our weather history database for the weather conditions in past years. The results will help you decide how hot, cold, wet, or windy it might be!

Date:

Astronomy

Nov. 23, 2012 Rise Set
Actual Time 7:37 AM CST 4:44 PM CST
Civil Twilight 7:04 AM CST 5:17 PM CST
Nautical Twilight 6:27 AM CST 5:54 PM CST
Astronomical Twilight 5:51 AM CST 6:30 PM CST
Moon 2:11 PM CST 2:44 AM CST
Length of Visible Light 10h 13m
Length of Day
9h 06m
Waxing Gibbous, 80% of the Moon is Illuminated
Nov 23
Waxing Gibbous
Nov 28
Full
Dec 6
Last Quarter
Dec 13
New
Dec 19
First Quarter

Hourly Weather History & Observations

Time (CST) Temp. Windchill Dew Point Humidity Pressure Visibility Wind Dir Wind Speed Gust Speed Precip Events Conditions
12:13 AM 15.8 °F -4.4 °F 10.4 °F 79% 30.20 in 7.0 mi NNW 29.9 mph 39.1 mph N/A Snow Light Snow
12:33 AM 14.0 °F -5.5 °F 8.6 °F 79% 30.21 in 7.0 mi NNW 25.3 mph 36.8 mph N/A Snow Light Snow
12:53 AM 12.2 °F -8.2 °F 8.6 °F 85% 30.22 in 10.0 mi NNW 26.5 mph 40.3 mph N/A   Overcast
1:13 AM 12.2 °F -8.2 °F 8.6 °F 85% 30.23 in 10.0 mi NNW 26.5 mph 39.1 mph N/A Snow Light Snow
1:33 AM 12.2 °F -9.6 °F 8.6 °F 85% 30.23 in 5.0 mi NNW 31.1 mph 39.1 mph N/A Snow Light Snow
1:53 AM 12.2 °F -9.3 °F 6.8 °F 79% 30.24 in 5.0 mi NNW 29.9 mph 39.1 mph N/A Snow Light Snow
2:13 AM 12.2 °F -8.6 °F 8.6 °F 85% 30.25 in 2.5 mi NW 27.6 mph 35.7 mph N/A Snow Light Snow
2:33 AM 12.2 °F -8.6 °F 6.8 °F 79% 30.26 in 5.0 mi NNW 27.6 mph 38.0 mph N/A Snow Light Snow
2:53 AM 12.2 °F -8.2 °F 8.6 °F 85% 30.27 in 4.0 mi NNW 26.5 mph 36.8 mph N/A Snow Light Snow
3:13 AM 12.2 °F -7.1 °F 8.6 °F 85% 30.28 in 3.0 mi NW 23.0 mph 29.9 mph N/A Snow Light Snow
3:33 AM 12.2 °F -8.6 °F 8.6 °F 85% 30.28 in 3.0 mi NNW 27.6 mph 34.5 mph N/A Snow Light Snow
3:53 AM 12.2 °F -7.5 °F 8.6 °F 85% 30.30 in 4.0 mi NNW 24.2 mph 33.4 mph N/A Snow Light Snow
4:13 AM 12.2 °F -7.9 °F 8.6 °F 85% 30.30 in 5.0 mi NNW 25.3 mph 32.2 mph N/A Snow Light Snow
4:33 AM 12.2 °F -7.1 °F 8.6 °F 85% 30.31 in 5.0 mi NNW 23.0 mph 32.2 mph N/A Snow Light Snow
4:53 AM 14.0 °F -5.1 °F 8.6 °F 79% 30.33 in 5.0 mi NNW 24.2 mph 36.8 mph N/A Snow Light Snow
5:13 AM 14.0 °F -5.5 °F 8.6 °F 79% 30.33 in 5.0 mi NNW 25.3 mph 35.7 mph N/A Snow Light Snow
5:33 AM 14.0 °F -4.7 °F 10.4 °F 86% 30.34 in 4.0 mi NNW 23.0 mph 33.4 mph N/A Snow Light Snow
5:53 AM 14.0 °F -5.1 °F 8.6 °F 79% 30.34 in 5.0 mi NNW 24.2 mph 29.9 mph N/A Snow Light Snow
6:13 AM 14.0 °F -5.1 °F 8.6 °F 79% 30.35 in 7.0 mi NNW 24.2 mph 32.2 mph N/A Snow Light Snow
6:34 AM 14.0 °F -5.8 °F 8.6 °F 79% 30.36 in 7.0 mi NNW 26.5 mph 32.2 mph N/A Snow Light Snow
7:13 AM 14.0 °F -4.3 °F 8.6 °F 79% 30.37 in 7.0 mi NNW 21.9 mph 32.2 mph N/A Snow Light Snow
7:33 AM 14.0 °F -3.0 °F 8.6 °F 79% 30.39 in 7.0 mi NNW 18.4 mph 24.2 mph N/A Snow Light Snow
7:53 AM 14.0 °F -4.3 °F 8.6 °F 79% 30.39 in 7.0 mi NNW 21.9 mph 26.5 mph N/A Snow Light Snow
8:13 AM 14.0 °F -2.5 °F 8.6 °F 79% 30.40 in 5.0 mi NNW 17.3 mph 24.2 mph N/A Snow Light Snow
8:33 AM 14.0 °F -2.5 °F 10.4 °F 86% 30.41 in 10.0 mi NNW 17.3 mph 25.3 mph N/A Snow Light Snow
8:53 AM 15.8 °F -2.3 °F 10.4 °F 79% 30.40 in 10.0 mi NNW 23.0 mph 28.8 mph N/A Snow Light Snow
9:13 AM 15.8 °F -1.1 °F 10.4 °F 79% 30.41 in 7.0 mi NNW 19.6 mph 26.5 mph N/A Snow Light Snow
9:34 AM 15.8 °F -1.9 °F 10.4 °F 79% 30.41 in 5.0 mi NNW 21.9 mph 27.6 mph N/A Snow Light Snow
9:53 AM 15.8 °F -1.5 °F 10.4 °F 79% 30.42 in 7.0 mi NNW 20.7 mph 25.3 mph N/A Snow Light Snow
10:13 AM 15.8 °F -1.5 °F 10.4 °F 79% 30.43 in 4.0 mi NNW 20.7 mph 26.5 mph N/A Snow Light Snow
10:33 AM 15.8 °F -1.1 °F 10.4 °F 79% 30.44 in 5.0 mi NNW 19.6 mph 25.3 mph N/A Snow Light Snow
10:53 AM 15.8 °F -1.1 °F 10.4 °F 79% 30.44 in 4.0 mi NW 19.6 mph 26.5 mph N/A Snow Light Snow
11:13 AM 15.8 °F -1.1 °F 10.4 °F 79% 30.44 in 10.0 mi NNW 19.6 mph 25.3 mph N/A Snow Light Snow
11:33 AM 15.8 °F -1.5 °F 8.6 °F 73% 30.44 in 7.0 mi NW 20.7 mph 25.3 mph N/A Snow Light Snow
11:53 AM 15.8 °F -2.3 °F 8.6 °F 73% 30.43 in 7.0 mi NNW 23.0 mph 26.5 mph N/A Snow Light Snow
12:13 PM 15.8 °F -1.5 °F 8.6 °F 73% 30.43 in 5.0 mi NW 20.7 mph - N/A Snow Light Snow
12:33 PM 15.8 °F -1.1 °F 8.6 °F 73% 30.43 in 5.0 mi NW 19.6 mph 26.5 mph N/A Snow Light Snow
12:53 PM 15.8 °F -1.1 °F 8.6 °F 73% 30.43 in 4.0 mi NNW 19.6 mph - N/A Snow Light Snow
1:13 PM 15.8 °F 0.3 °F 8.6 °F 73% 30.43 in 7.0 mi NNW 16.1 mph - N/A Snow Light Snow
1:33 PM 15.8 °F -1.9 °F 8.6 °F 73% 30.43 in 7.0 mi NW 21.9 mph 25.3 mph N/A Snow Light Snow
1:53 PM 15.8 °F -1.1 °F 8.6 °F 73% 30.42 in 7.0 mi NNW 19.6 mph 24.2 mph N/A Snow Light Snow
2:13 PM 15.8 °F -0.6 °F 8.6 °F 73% 30.42 in 5.0 mi NNW 18.4 mph 24.2 mph N/A Snow Light Snow
2:33 PM 15.8 °F -0.2 °F 8.6 °F 73% 30.42 in 5.0 mi NNW 17.3 mph 21.9 mph N/A Snow Light Snow
2:53 PM 15.8 °F 0.9 °F 8.6 °F 73% 30.42 in 10.0 mi NNW 15.0 mph 23.0 mph N/A Snow Light Snow
3:13 PM 15.8 °F -0.2 °F 8.6 °F 73% 30.42 in 10.0 mi NW 17.3 mph - N/A Snow Light Snow
3:33 PM 15.8 °F 0.9 °F 8.6 °F 73% 30.43 in 7.0 mi NW 15.0 mph - N/A Snow Light Snow
3:53 PM 15.8 °F 0.9 °F 8.6 °F 73% 30.44 in 7.0 mi NW 15.0 mph 19.6 mph N/A Snow Light Snow
4:13 PM 15.8 °F 2.1 °F 8.6 °F 73% 30.44 in 10.0 mi NNW 12.7 mph - N/A   Overcast
4:33 PM 15.8 °F 2.1 °F 8.6 °F 73% 30.43 in 10.0 mi NNW 12.7 mph - N/A   Overcast
4:53 PM 15.8 °F 2.7 °F 8.6 °F 73% 30.43 in 10.0 mi NNW 11.5 mph - N/A Snow Light Snow
5:13 PM 15.8 °F 2.7 °F 8.6 °F 73% 30.43 in 5.0 mi North 11.5 mph - N/A Snow Light Snow
5:33 PM 15.8 °F 3.4 °F 8.6 °F 73% 30.43 in 10.0 mi NNW 10.4 mph - N/A   Overcast
5:53 PM 14.0 °F 0.5 °F 8.6 °F 79% 30.42 in 10.0 mi NNW 11.5 mph - N/A   Overcast
6:33 PM 12.2 °F -1.0 °F 8.6 °F 85% 30.43 in 10.0 mi NW 10.4 mph - N/A   Overcast
6:53 PM 12.2 °F -1.0 °F 8.6 °F 85% 30.43 in 10.0 mi NNW 10.4 mph - N/A Snow Light Snow
7:13 PM 14.0 °F 2.0 °F 8.6 °F 79% 30.43 in 5.0 mi NW 9.2 mph - N/A Snow Light Snow
7:33 PM 14.0 °F 3.9 °F 8.6 °F 79% 30.42 in 5.0 mi NNW 6.9 mph - N/A Snow Light Snow
7:53 PM 12.2 °F 0.7 °F 8.6 °F 85% 30.42 in 10.0 mi North 8.1 mph - N/A Snow Light Snow
8:13 PM 12.2 °F 2.9 °F 6.8 °F 79% 30.40 in 10.0 mi North 5.8 mph - N/A Snow Light Snow
8:33 PM 12.2 °F 6.1 °F 6.8 °F 79% 30.40 in 10.0 mi North 3.5 mph - N/A Snow Light Snow
8:53 PM 10.4 °F -1.5 °F 6.8 °F 85% 30.39 in 10.0 mi North 8.1 mph - N/A Snow Light Snow
9:13 PM 10.4 °F 4.0 °F 6.8 °F 85% 30.39 in 10.0 mi North 3.5 mph - N/A   Scattered Clouds
9:33 PM 8.6 °F 0.1 °F 5.0 °F 85% 30.38 in 10.0 mi North 4.6 mph - N/A   Clear
9:53 PM 8.6 °F - 3.2 °F 79% 30.38 in 10.0 mi Calm Calm - N/A   Clear
10:13 PM 6.8 °F - 3.2 °F 85% 30.39 in 10.0 mi Calm Calm - N/A   Clear
10:33 PM 6.8 °F -2.0 °F 1.4 °F 79% 30.39 in 10.0 mi NW 4.6 mph - N/A   Clear
10:53 PM 6.8 °F -0.1 °F 3.2 °F 85% 30.38 in 10.0 mi North 3.5 mph - N/A   Clear
11:13 PM 8.6 °F 2.0 °F 3.2 °F 79% 30.37 in 10.0 mi NNW 3.5 mph - N/A   Clear
11:33 PM 8.6 °F - 3.2 °F 79% 30.37 in 10.0 mi Calm Calm - N/A   Clear
11:53 PM 6.8 °F - 3.2 °F 85% 30.36 in 10.0 mi Calm Calm - N/A   Clear